Weather History for Deadhorse, AK

Change the Weather History Date:

Wednesday, July 10, 2013

  Actual Average Record
Temperature  
Mean Temperature 38 °F -  
Max Temperature 44 °F 51 °F 74 °F (1989)
Min Temperature 33 °F 37 °F 31 °F (1991)
Degree Days  
Heating Degree Days 26    
Moisture  
Dew Point 33 °F    
Average Humidity 87    
Maximum Humidity 100    
Minimum Humidity 70    
Precipitation  
Precipitation 0.00 in - - ()
Sea Level Pressure  
Sea Level Pressure 30.23 in    
Wind  
Wind Speed 19 mph (ENE)    
Max Wind Speed 23 mph    
Max Gust Speed 29 mph    
Visibility 7 miles    
Events      
Averages and records for this station are not official NWS values.
T = Trace of Precipitation, MM = Missing Value Source: NWS Daily Summary

Daily Weather History Graph

Daily Weather History Graph

Search for Another Location

Airport:

Trip Planner

Search our weather history database for the weather conditions in past years. The results will help you decide how hot, cold, wet, or windy it might be!

Date:

Astronomy

Dec. 31, 1969 Rise Set
Actual Time Sun does not rise Sun does not rise
Civil Twilight Sun does not rise Sun does not rise
Nautical Twilight Sun does not rise Sun does not rise
Astronomical Twilight Sun does not rise Sun does not rise
Moon 7:21 AM AKDT (7/10) 11:55 PM AKDT (7/10)
Length of Visible Light 24h 00m
Length of Day
24h 00m
Waxing Crescent, 6% of the Moon is Illuminated
Jul 10
Waxing Crescent
Jul 15
First Quarter
Jul 22
Full
Jul 29
Last Quarter
Aug 6
New

Hourly Weather History & Observations

Time (AKDT) Temp. Windchill Dew Point Humidity Pressure Visibility Wind Dir Wind Speed Gust Speed Precip Events Conditions
12:00 AM 33.8 °F 22.5 °F 33.8 °F 100% 30.18 in 3.0 mi ENE 19.6 mph 27.6 mph N/A   Overcast
12:53 AM 34.0 °F 21.8 °F 32.0 °F 92% 30.19 in 10.0 mi ENE 23.0 mph - N/A   Overcast
1:53 AM 33.1 °F 20.6 °F 32.0 °F 96% 30.20 in 3.0 mi ENE 23.0 mph - N/A   Overcast
1:55 AM 33.8 °F 21.9 °F 32.0 °F 93% 30.19 in 2.0 mi ENE 21.9 mph - N/A   Overcast
2:22 AM 33.8 °F 21.9 °F 32.0 °F 93% 30.19 in 1.5 mi ENE 21.9 mph 28.8 mph N/A   Overcast
2:48 AM 33.8 °F 22.2 °F 32.0 °F 93% 30.20 in 3.0 mi ENE 20.7 mph - N/A   Overcast
2:53 AM 33.1 °F 21.2 °F 32.0 °F 96% 30.20 in 2.5 mi ENE 20.7 mph - N/A   Overcast
3:10 AM 33.8 °F 21.9 °F 32.0 °F 93% 30.20 in 6.0 mi ENE 21.9 mph 27.6 mph N/A   Overcast
3:53 AM 33.1 °F 22.2 °F 32.0 °F 96% 30.21 in 3.0 mi ENE 17.3 mph - N/A   Overcast
4:39 AM 33.8 °F 24.3 °F 32.0 °F 93% 30.22 in 2.0 mi ENE 13.8 mph - N/A   Overcast
4:46 AM 33.8 °F 23.9 °F 32.0 °F 93% 30.22 in 1.2 mi ENE 15.0 mph - N/A   Overcast
4:53 AM 33.1 °F 23.0 °F 32.0 °F 96% 30.22 in 2.0 mi ENE 15.0 mph - N/A   Overcast
5:04 AM 33.8 °F 22.8 °F 32.0 °F 93% 30.22 in 3.0 mi ENE 18.4 mph - N/A   Overcast
5:23 AM 33.8 °F 22.8 °F 32.0 °F 93% 30.22 in 2.0 mi ENE 18.4 mph - N/A   Overcast
5:37 AM 33.8 °F 23.2 °F 32.0 °F 93% 30.22 in 4.0 mi ENE 17.3 mph 25.3 mph N/A   Overcast
5:53 AM 33.1 °F 21.9 °F 32.0 °F 96% 30.22 in 3.0 mi ENE 18.4 mph - N/A   Overcast
6:40 AM 33.8 °F 23.5 °F 32.0 °F 93% 30.22 in 6.0 mi ENE 16.1 mph 23.0 mph N/A   Overcast
6:53 AM 34.0 °F 23.0 °F 32.0 °F 92% 30.23 in 6.0 mi ENE 18.4 mph - N/A   Overcast
7:53 AM 35.1 °F 25.2 °F 33.1 °F 92% 30.23 in 6.0 mi ENE 16.1 mph - N/A   Overcast
8:53 AM 37.0 °F 26.4 °F 33.1 °F 86% 30.24 in 10.0 mi ENE 20.7 mph - N/A   Mostly Cloudy
9:53 AM 37.9 °F 27.6 °F 34.0 °F 86% 30.25 in 10.0 mi ENE 20.7 mph - N/A   Mostly Cloudy
10:53 AM 39.0 °F 29.3 °F 34.0 °F 82% 30.25 in 10.0 mi ENE 19.6 mph - N/A   Mostly Cloudy
11:53 AM 39.9 °F 30.5 °F 34.0 °F 79% 30.25 in 10.0 mi ENE 19.6 mph 25.3 mph N/A   Mostly Cloudy
12:37 PM 42.8 °F 34.5 °F 33.8 °F 70% 30.25 in 10.0 mi ENE 18.4 mph - N/A   Scattered Clouds
12:53 PM 42.1 °F 33.3 °F 35.1 °F 76% 30.26 in 10.0 mi ENE 19.6 mph - N/A   Partly Cloudy
1:53 PM 44.1 °F 35.7 °F 35.1 °F 71% 30.26 in 10.0 mi ENE 20.7 mph 25.3 mph N/A   Scattered Clouds
2:53 PM 43.0 °F 34.2 °F 35.1 °F 74% 30.26 in 10.0 mi NE 20.7 mph - N/A   Scattered Clouds
3:53 PM 43.0 °F 35.4 °F 35.1 °F 74% 30.26 in 10.0 mi ENE 16.1 mph - N/A   Scattered Clouds
4:53 PM 44.1 °F 36.8 °F 35.1 °F 71% 30.26 in 10.0 mi ENE 16.1 mph - N/A   Clear
5:53 PM 43.0 °F 34.5 °F 35.1 °F 74% 30.26 in 10.0 mi NE 19.6 mph - N/A   Clear
6:53 PM 42.1 °F 33.6 °F 35.1 °F 76% 30.26 in 10.0 mi NE 18.4 mph - N/A   Clear
7:53 PM 41.0 °F 31.9 °F 35.1 °F 79% 30.26 in 10.0 mi ENE 19.6 mph - N/A   Clear
8:53 PM 39.0 °F 29.6 °F 34.0 °F 82% 30.27 in 10.0 mi ENE 18.4 mph - N/A   Scattered Clouds
9:53 PM 37.9 °F 28.9 °F 34.0 °F 86% 30.27 in 10.0 mi ENE 16.1 mph - N/A   Scattered Clouds
10:53 PM 37.0 °F 28.1 °F 34.0 °F 89% 30.28 in 10.0 mi ENE 15.0 mph - N/A   Scattered Clouds
11:53 PM 37.0 °F 28.1 °F 34.0 °F 89% 30.29 in 10.0 mi ENE 15.0 mph - N/A   Scattered Clouds